カタログに戻る

FENGYUN 1C DEB

運用中SSO
NORAD 29854·DEBRIS·🇨🇳 China

打ち上げ May 10, 1999 から Taiyuan Satellite Launch Center

Loading…

次のパス (今後24時間)

TLE

最新Source: Space-Track

元期: Sep 13, 2026, 23:22 UTC

1 29854U 99025EY  26256.97373825  .00000154  00000-0  16317-3 0  9999
2 29854  98.9643  49.7591 0146597  29.9100  92.8687 13.83549239991496

AllMySatでFENGYUN 1C DEBをリアルタイム追跡

Download on the App Store